Wind_Speed
8 5 4 6 8 8 8 8 8 6 6 7 7 7 7 8 7 8 10 12 13 12 10 14 15 16 17 15 17 26 28 25 26 24 25 30 31 31 31 31 32 31 29 26 27 28 26 24 23 26 29 27 26 26 24 22 22 22 21 22 19 16 16 15 15 16 16 16 15 15 14 13 12 11 11 11 11 9 8 7 7 5 4 6 8 9
7 6 7 9 11 9 9 8 7 4 6 7 7 7 7 7 7 8 9 11 11 9 7 13 16 16 18 16 17 25 23 20 27 25 25 31 32 32 33 33 34 31 28 27 29 29 25 26 26 27 29 28 27 28 28 26 24 23 22 22 19 18 18 16 15 15 15 14 13 12 11 10 9 8 7 7 7 6 5 5 5 4 5 7 8 9
4 6 10 12 9 7 8 7 6 5 5 8 6 6 6 5 4 4 5 10 10 7 7 13 15 14 16 16 17 23 22 22 32 32 31 36 34 33 34 34 35 32 28 29 31 29 27 28 28 28 28 28 28 27 28 27 24 23 22 21 20 19 18 17 15 15 13 12 11 10 9 8 8 7 6 5 7 7 6 6 6 7 7 8 9 10
4 6 10 12 8 6 8 8 6 5 5 6 5 5 5 5 6 4 5 10 7 6 12 13 11 9 11 12 14 24 29 26 32 35 35 39 38 37 38 37 38 35 33 33 33 31 29 29 29 28 28 28 28 27 26 26 25 23 22 22 22 20 18 17 16 14 12 12 11 10 9 8 8 9 8 9 10 10 9 9 9 9 8 8 9 9
6 8 9 9 9 8 9 9 6 5 5 5 7 6 4 6 10 9 6 7 3 5 13 12 6 4 9 11 10 17 24 22 27 31 30 36 40 39 38 39 40 39 38 37 35 33 31 30 30 28 28 29 29 28 27 27 26 24 23 23 22 20 18 18 16 14 13 13 12 11 11 11 11 11 10 12 13 11 10 10 9 8 8 8 8 9
8 12 9 8 10 10 8 9 8 7 5 5 7 9 8 9 12 10 7 7 5 3 10 12 7 4 6 11 11 11 13 15 21 25 25 31 35 35 36 38 40 40 40 39 37 36 34 32 31 29 29 30 30 29 27 27 26 24 23 23 22 20 19 18 17 16 15 14 14 13 14 14 14 12 11 11 11 10 9 8 7 7 7 7 7 8
6 11 8 7 10 11 9 9 10 7 4 6 7 10 11 10 11 13 11 8 5 5 11 13 9 4 4 8 12 11 11 13 16 18 22 29 32 33 36 38 39 40 40 40 38 37 36 34 33 32 31 31 30 29 27 26 26 25 24 24 23 21 19 18 17 16 15 14 14 14 14 14 14 14 13 12 12 11 10 10 10 9 8 8 8 9
6 10 9 8 10 9 9 8 9 7 5 7 7 9 10 8 13 16 14 10 6 4 8 7 4 5 5 9 10 10 12 13 14 14 18 27 32 34 37 39 41 41 41 40 39 38 37 35 34 34 32 31 30 28 27 27 26 26 25 25 24 22 20 19 18 16 15 14 14 14 13 13 14 15 15 16 16 16 15 15 13 11 9 9 11 10
6 9 9 10 10 7 7 9 9 7 6 9 7 8 8 7 13 16 14 11 5 6 5 5 3 5 4 5 5 8 11 13 16 16 17 24 32 35 37 40 42 43 42 41 40 40 39 37 35 34 32 31 30 28 28 27 27 26 26 25 25 23 21 20 19 17 16 15 14 13 12 12 14 15 16 17 17 16 16 14 12 10 10 11 11 8
6 11 13 11 9 7 8 10 9 8 7 9 7 6 4 3 8 12 11 8 5 5 7 8 4 4 3 4 4 7 9 13 16 16 17 25 33 36 37 40 42 43 42 41 40 40 40 38 36 35 32 31 30 29 28 28 28 28 27 27 26 25 23 21 19 18 16 15 14 13 12 14 15 15 16 15 14 13 12 11 11 11 12 12 10 6
7 14 15 10 8 10 11 12 10 10 10 8 6 4 3 3 4 6 3 4 5 3 7 13 13 7 2 5 5 8 13 17 16 14 15 22 30 36 37 39 41 42 43 42 41 40 39 38 37 35 34 32 31 29 29 30 30 30 29 28 27 26 24 22 20 18 17 16 13 13 14 15 15 15 15 14 13 12 12 12 13 14 13 11 9 7
9 12 9 7 14 14 10 11 10 9 8 6 2 2 3 4 3 3 4 3 4 5 6 13 17 10 5 6 6 12 18 19 17 16 17 20 28 36 36 37 41 43 43 43 41 40 40 39 39 37 37 35 33 32 32 32 32 32 31 30 29 28 26 24 21 19 18 15 14 14 14 14 14 14 14 13 13 13 12 13 13 11 10 9 8 9
9 10 7 8 17 16 9 7 8 6 5 6 2 5 3 3 1 1 1 2 4 6 6 11 14 9 7 7 11 19 20 16 17 22 26 27 31 35 36 38 41 43 43 43 42 42 42 42 42 41 40 38 36 35 35 34 34 33 33 32 31 30 28 25 23 21 18 16 15 15 14 13 13 13 12 12 12 12 11 11 10 9 8 9 9 9
6 8 10 9 10 14 13 8 7 6 4 6 5 5 5 3 1 3 3 2 2 4 6 7 9 6 5 6 12 20 22 23 26 29 34 35 36 38 40 42 42 43 44 45 44 44 44 45 44 42 42 41 39 38 36 35 35 35 35 34 33 32 29 27 25 23 20 18 18 16 14 13 12 11 11 11 11 11 10 10 10 9 9 9 9 8
6 7 9 9 6 10 14 11 10 7 5 6 5 6 5 5 4 4 4 3 3 4 5 3 3 4 4 5 11 19 25 31 31 27 29 35 38 41 41 40 40 42 45 46 46 47 47 47 45 43 43 42 42 40 38 37 36 36 37 36 35 33 31 28 26 24 22 20 20 17 15 13 11 10 10 10 10 10 10 10 9 9 9 8 8 9
7 7 7 9 9 10 11 11 10 9 5 5 4 6 4 6 5 2 4 5 4 2 3 3 3 5 5 5 6 11 17 20 21 21 25 31 35 36 35 37 39 42 44 45 46 47 47 47 45 45 45 44 44 42 41 40 39 39 39 38 37 34 32 30 27 26 24 22 22 19 16 14 12 12 11 10 10 10 10 9 8 8 8 7 7 8
5 6 6 7 8 10 12 10 10 9 6 3 3 5 5 6 7 3 3 2 3 2 4 2 2 4 2 5 5 3 6 9 13 17 23 29 32 33 34 38 40 41 44 46 47 47 48 48 47 47 46 46 45 44 43 42 42 42 41 40 39 36 34 32 29 28 26 25 24 21 17 15 14 12 11 10 10 10 9 8 7 7 6 5 6 6
5 5 8 7 7 12 16 13 9 9 9 5 5 7 4 2 4 4 1 2 4 1 4 3 3 4 1 3 4 5 7 9 12 15 18 23 29 32 35 40 43 45 47 48 48 48 48 49 50 49 48 48 47 46 45 44 44 43 42 41 40 39 38 35 32 30 29 28 26 22 18 16 14 12 11 10 10 10 9 9 7 6 5 4 4 3
5 3 7 8 8 9 11 10 7 7 7 7 5 6 5 4 2 1 3 2 1 2 3 4 5 3 3 4 3 3 9 11 12 14 14 17 24 30 35 40 45 46 46 46 47 47 47 49 50 50 49 49 48 47 46 46 45 44 43 42 42 41 39 36 34 33 32 30 28 23 19 17 15 13 12 12 10 10 10 8 7 6 5 4 3 2
4 2 5 7 6 7 6 5 6 6 4 3 4 3 3 4 5 3 4 5 4 3 3 4 5 4 5 5 5 9 12 13 14 13 12 16 26 32 35 39 44 45 44 45 47 47 48 50 51 51 51 51 50 50 49 48 47 46 45 44 44 43 40 38 37 36 35 32 29 25 20 18 16 14 14 12 11 10 9 8 7 7 7 5 5 3
4 4 5 8 5 6 6 5 8 8 5 4 4 4 3 1 3 3 2 3 5 4 3 3 4 5 5 4 7 10 10 11 14 14 13 19 29 34 37 40 43 46 46 47 48 48 49 50 51 52 52 51 51 51 50 50 49 48 48 47 47 45 43 41 39 38 36 34 30 26 22 19 17 16 15 13 12 11 10 8 9 9 7 6 5 4
4 5 6 6 6 5 6 8 11 12 9 8 6 6 6 4 4 3 3 2 3 5 5 5 4 6 5 4 7 9 7 8 13 14 13 19 29 34 37 40 43 45 47 48 49 49 49 49 51 52 52 51 51 51 51 52 51 51 50 49 49 47 45 43 40 39 37 35 32 28 23 20 18 16 15 14 13 12 11 10 11 10 7 5 4 4
7 4 4 6 7 7 8 11 13 13 11 9 7 7 7 5 5 5 4 4 2 2 2 4 2 5 6 4 4 8 9 11 17 19 16 20 30 36 36 38 41 44 47 48 49 48 49 49 50 51 51 50 51 51 52 52 52 53 52 51 50 49 46 44 41 39 38 36 33 29 24 21 19 17 16 15 14 13 12 12 13 11 8 6 5 6
8 4 4 4 5 6 8 9 9 10 9 7 5 5 6 6 6 6 5 5 4 3 2 4 1 5 6 4 1 8 12 13 18 23 23 23 29 34 35 36 39 42 45 46 46 47 47 48 47 48 49 50 51 52 52 53 53 53 52 51 51 49 48 46 43 40 38 37 34 29 25 22 20 18 17 16 15 14 13 13 14 11 8 7 6 7
7 5 5 4 3 5 5 6 6 6 5 4 4 5 7 7 8 5 2 3 2 3 5 6 2 6 5 4 3 4 12 12 14 23 28 27 28 31 33 35 38 41 43 43 44 45 44 44 45 46 49 51 52 52 52 53 53 53 52 52 51 51 49 47 45 42 39 37 34 31 27 24 21 19 17 15 14 13 12 13 14 12 9 9 8 8
8 5 6 7 6 5 5 5 6 5 4 3 4 7 9 9 9 6 3 4 3 3 5 6 4 6 5 4 5 4 10 11 11 19 27 29 31 33 34 36 39 40 42 42 43 44 44 44 45 48 50 52 52 53 53 53 53 53 52 52 52 52 50 48 47 44 40 37 34 32 28 25 22 19 16 14 13 12 12 14 14 12 11 9 8 9
4 4 7 10 9 8 8 9 8 7 7 6 6 9 9 9 9 6 5 5 6 5 4 5 7 6 5 5 7 7 9 11 10 14 20 26 31 35 36 37 38 39 40 40 41 43 44 45 46 48 50 51 52 53 53 53 53 53 52 53 53 52 51 49 48 45 43 40 37 34 30 26 22 18 14 13 11 11 14 16 15 13 12 10 9 12
3 5 9 11 13 14 11 10 9 9 11 10 9 9 9 8 8 8 6 6 6 7 5 8 9 12 11 11 11 11 10 10 9 13 21 26 31 35 37 38 38 37 37 38 39 41 43 44 46 47 48 50 51 52 52 52 52 52 53 54 54 52 51 50 49 47 45 43 39 34 30 25 20 16 13 12 11 12 14 16 15 14 13 11 12 15
5 6 9 11 13 14 12 10 9 11 12 11 10 10 11 11 10 9 8 7 9 8 7 9 13 16 14 12 13 14 13 14 16 22 29 32 33 35 37 37 38 37 37 38 38 39 40 41 43 44 46 48 49 49 49 50 51 51 52 53 52 51 50 49 49 47 46 43 37 31 26 23 19 16 12 12 12 13 15 14 14 15 14 13 14 16
5 6 9 12 11 11 12 11 9 10 11 12 14 13 11 12 11 9 7 9 12 10 8 12 15 14 13 14 16 16 16 18 22 27 29 30 32 34 34 35 36 36 36 36 35 36 37 39 39 41 43 45 46 47 48 49 50 49 50 50 49 48 48 48 47 45 43 41 34 28 24 22 20 17 12 12 13 14 14 14 15 16 15 14 14 15
8 6 7 11 9 9 11 10 7 8 9 12 15 12 7 6 6 3 2 5 7 4 4 13 15 11 9 10 10 10 12 14 16 20 24 26 30 33 32 33 34 34 33 32 32 32 34 36 37 39 40 40 42 45 46 48 47 47 48 49 50 51 51 50 48 43 42 40 33 29 27 25 25 19 11 11 14 13 14 14 15 16 15 14 15 15
6 5 3 7 6 5 7 6 7 6 5 5 4 3 3 4 2 2 2 3 4 3 4 7 9 9 7 4 6 7 10 13 14 17 21 22 25 29 30 30 30 29 29 29 29 29 31 32 33 33 34 36 39 42 44 45 45 46 49 51 52 52 50 47 43 39 41 42 35 31 30 30 28 19 12 12 15 14 15 16 16 16 16 15 15 15
3 4 4 6 5 4 4 4 8 6 5 2 3 2 3 6 7 6 3 1 2 6 7 5 7 7 2 2 5 7 8 10 12 16 19 18 19 22 22 21 19 18 18 19 20 20 20 20 19 20 23 27 33 38 40 41 43 46 50 51 50 48 46 42 37 36 42 43 34 29 31 32 26 18 14 15 15 15 17 18 18 19 18 16 16 16
2 3 4 5 6 3 4 2 6 4 4 4 4 3 5 8 11 10 5 2 3 5 6 3 5 6 8 8 6 5 6 9 13 16 19 18 17 16 15 14 13 12 12 11 9 8 8 7 7 8 11 16 26 32 33 35 40 43 44 45 46 47 45 40 37 38 43 42 34 30 34 32 20 14 13 15 15 17 20 20 20 20 19 18 17 17
4 1 2 3 5 3 1 4 5 4 6 5 4 4 6 9 13 12 6 3 5 9 10 8 4 5 12 15 15 14 13 15 18 19 18 14 11 10 10 11 12 11 9 7 5 4 4 5 4 4 6 10 18 24 26 29 34 36 36 36 37 38 38 36 34 36 39 40 36 35 34 26 17 16 15 16 17 21 23 22 22 22 21 20 19 18
1 2 2 3 3 3 3 4 3 5 5 5 2 5 6 7 9 9 7 6 6 6 9 10 7 5 9 16 23 26 24 20 17 14 13 10 7 5 6 9 10 8 6 5 5 4 5 6 6 5 5 6 9 16 23 29 32 34 35 35 36 37 37 35 35 36 39 40 40 39 32 21 19 18 18 19 21 24 24 23 23 23 22 21 19 18
5 3 2 3 2 3 5 3 1 0 4 6 3 1 1 1 4 7 5 3 6 6 4 9 9 6 8 13 21 28 27 20 11 7 7 9 9 7 6 7 9 8 7 8 7 5 5 7 8 7 5 6 8 13 20 25 30 34 37 38 40 41 40 39 38 39 44 46 47 45 35 22 20 21 22 23 26 27 26 25 24 23 22 21 20 19
4 3 4 3 1 2 5 4 3 3 1 3 5 6 3 3 8 9 6 2 6 10 5 6 12 10 10 13 18 22 19 12 5 3 6 11 11 10 11 10 10 9 9 8 6 4 5 6 5 3 3 5 7 10 14 19 26 32 35 37 39 41 40 40 41 43 47 51 52 51 40 26 23 23 25 27 28 28 27 26 23 22 22 22 22 21
6 2 4 5 2 2 5 4 2 3 2 4 7 8 5 8 11 7 7 2 6 13 9 4 10 11 12 14 16 15 11 7 2 1 9 15 13 10 11 12 12 11 9 6 4 4 3 2 2 3 4 4 4 6 10 16 23 29 32 33 35 36 36 38 42 45 48 52 53 48 38 29 25 25 27 29 29 28 28 25 23 22 23 23 24 23
6 4 4 5 3 3 5 3 2 3 0 3 6 10 10 2 9 8 5 1 8 13 7 8 8 7 11 14 13 9 6 6 7 4 13 19 17 14 13 12 11 9 7 5 2 2 4 6 6 5 3 2 3 6 10 15 21 26 27 28 31 33 33 34 38 42 46 49 48 43 37 32 27 25 28 29 29 29 27 26 25 25 24 25 26 25
3 4 2 4 4 4 5 3 0 1 1 5 9 15 18 7 8 7 3 5 8 8 15 23 18 15 19 21 17 11 9 11 13 13 16 18 17 16 12 9 7 5 2 1 3 5 7 7 5 3 2 1 2 6 10 15 20 23 24 26 28 31 30 30 35 40 42 42 41 39 38 33 27 26 27 28 29 30 29 27 27 27 26 27 27 26
2 2 3 2 3 3 4 4 2 0 1 9 14 16 13 5 4 3 4 4 0 8 23 29 24 23 26 26 21 16 15 16 16 16 16 15 15 15 12 8 6 3 1 3 5 7 7 7 5 3 3 3 4 6 10 16 20 21 22 24 25 25 26 28 33 37 37 36 36 37 37 33 29 29 29 29 32 34 32 29 28 28 28 29 29 29
1 1 2 2 1 3 3 4 3 2 6 14 14 9 8 5 5 8 9 7 8 17 26 27 24 23 24 22 20 18 17 16 15 15 15 14 13 13 10 8 6 3 1 3 6 8 8 7 5 5 5 4 5 7 11 15 19 20 20 20 18 19 23 26 29 31 31 31 31 34 35 33 29 29 30 32 35 36 34 31 30 29 30 31 31 30
2 2 2 1 0 3 3 2 2 5 7 13 13 6 6 8 6 9 11 10 11 21 28 26 23 21 19 17 17 16 15 14 13 13 13 12 11 10 8 7 6 5 2 3 5 6 6 5 5 5 6 6 6 9 12 14 15 17 17 15 14 16 20 21 22 23 24 26 30 33 34 31 27 28 29 31 33 35 34 34 32 30 31 33 32 28
3 4 4 3 2 4 5 2 2 4 6 17 26 19 15 17 15 14 18 17 16 21 25 26 24 22 19 19 18 16 13 12 12 12 12 10 9 8 7 7 7 6 5 4 4 5 6 5 6 7 8 8 9 11 13 14 16 16 14 11 11 13 15 16 19 21 23 27 28 28 27 26 25 27 28 30 31 33 34 35 32 30 32 33 30 24
2 3 3 4 3 4 6 3 3 6 12 22 29 27 23 23 21 22 26 24 21 21 21 20 18 16 16 16 17 16 14 12 13 14 13 11 11 10 9 8 7 6 6 6 6 6 7 8 9 10 10 11 12 14 16 17 17 14 11 10 12 13 13 15 17 20 23 25 22 19 21 25 28 29 29 30 31 31 32 32 30 30 30 27 23 20
2 2 4 3 2 4 4 4 3 8 15 21 25 25 24 24 24 25 27 25 23 23 23 21 18 17 16 14 13 12 12 12 14 14 13 14 14 12 11 10 8 6 6 8 9 9 10 11 12 13 14 14 15 17 18 18 15 12 12 14 17 18 18 15 13 13 16 18 18 19 21 23 26 27 27 27 26 26 27 28 28 26 23 19 18 19
1 5 5 3 2 3 4 3 3 15 20 22 23 22 19 19 19 20 22 22 22 22 22 23 23 22 19 14 12 13 13 14 15 15 15 16 15 14 13 11 9 9 9 9 10 11 12 13 15 16 16 16 17 19 19 16 15 15 16 17 16 16 14 12 11 10 11 14 16 17 19 19 21 22 23 23 23 24 25 24 22 19 17 16 17 17
3 3 3 3 4 5 3 4 5 14 18 18 20 17 15 16 17 16 16 17 20 21 20 19 20 21 19 15 13 14 15 15 15 15 16 16 15 14 12 10 9 10 10 10 11 13 13 15 17 18 17 17 19 21 19 16 17 19 17 14 12 9 7 6 5 5 8 11 12 12 13 16 18 18 19 21 23 23 22 20 18 17 15 14 14 14
5 3 1 4 6 4 2 5 6 7 6 9 15 15 9 8 12 15 16 16 17 18 17 15 14 15 16 16 14 14 14 15 14 14 14 14 14 13 10 8 9 9 10 11 12 14 16 17 18 18 18 18 19 21 21 20 20 19 15 12 10 5 2 3 5 5 7 10 10 9 12 14 15 16 17 19 20 20 19 18 16 15 13 12 12 13
4 6 4 5 5 3 3 7 10 11 8 8 13 15 11 7 8 11 13 15 14 13 12 12 11 11 13 15 15 15 15 14 14 14 12 11 10 9 7 6 7 9 11 13 14 15 16 18 18 19 20 20 19 21 22 20 16 13 12 11 7 2 5 6 6 8 11 13 11 10 11 13 13 13 14 16 16 16 16 15 14 13 12 13 14 15
Wind_Direction
195 217 247 222 239 226 201 197 202 216 217 205 177 163 171 172 198 200 181 184 155 135 166 161 150 161 167 174 175 170 169 169 174 174 170 175 179 181 184 186 189 193 195 199 200 198 199 204 202 197 198 201 205 207 209 213 216 218 218 216 217 214 212 214 211 212 217 219 222 225 228 231 234 238 241 245 249 249 247 244 248 250 255 267 276 287
186 210 233 222 233 230 220 213 197 210 243 232 199 181 188 180 199 206 179 177 153 126 170 160 148 166 172 176 177 171 172 176 179 177 175 178 181 183 185 187 190 192 194 199 200 196 195 197 196 195 198 202 204 204 206 209 211 213 215 214 214 214 212 213 211 211 215 217 221 225 225 227 230 230 233 243 238 227 227 231 235 244 256 269 281 287
202 222 234 229 236 238 245 239 211 221 236 235 217 170 196 200 182 228 196 170 157 126 162 162 154 172 180 177 177 175 179 184 184 183 180 180 180 183 185 187 188 187 189 191 191 191 190 189 190 193 198 202 204 205 207 210 212 210 211 212 214 214 209 208 208 210 214 215 216 220 221 223 220 216 219 220 213 215 227 231 230 237 245 256 269 279
219 234 232 232 242 244 256 258 234 238 241 237 226 174 199 197 162 223 216 172 164 137 159 164 157 173 182 180 184 183 183 184 187 187 184 183 183 185 188 187 186 185 184 184 185 187 187 187 191 196 199 202 204 207 210 213 214 211 209 209 210 209 205 203 202 203 206 208 212 218 224 224 215 213 216 214 213 216 217 214 219 228 232 242 260 274
226 243 232 226 237 236 246 258 242 231 242 228 216 200 189 190 192 206 187 155 109 115 151 145 130 184 189 187 195 188 184 183 186 186 185 185 187 187 187 187 187 187 186 186 188 190 192 194 197 201 203 205 208 211 212 211 211 208 203 202 204 204 200 197 197 196 197 202 209 214 220 218 213 215 219 217 218 218 216 220 225 230 236 244 259 269
236 248 235 217 231 236 238 252 240 218 237 245 220 202 191 200 205 195 162 135 89 121 165 143 136 227 220 195 194 187 186 185 183 185 186 186 187 185 184 186 188 190 191 192 193 194 198 201 202 203 205 207 211 213 210 206 204 202 198 197 199 198 194 193 194 195 199 205 209 215 219 216 215 220 223 223 223 222 225 236 246 254 259 259 262 267
231 244 239 219 228 235 233 247 243 212 215 258 229 200 201 202 189 175 162 153 144 187 188 165 155 198 231 215 204 186 182 189 188 189 189 187 187 186 185 187 189 190 192 194 196 198 199 202 203 203 203 206 208 208 204 201 200 198 195 194 195 193 190 191 193 198 204 209 213 218 223 222 222 223 224 227 228 234 245 259 268 273 271 269 270 273
207 225 238 234 231 236 232 243 243 203 196 252 229 196 204 185 166 169 166 177 183 150 177 185 130 130 194 219 206 181 177 190 198 195 194 192 191 190 189 190 191 192 193 194 196 197 199 202 203 203 203 204 205 203 200 199 197 196 194 193 193 191 190 192 196 202 207 212 217 220 222 225 227 227 230 232 234 241 249 254 258 260 263 270 278 279
208 211 224 230 234 237 228 237 233 199 203 243 227 193 196 170 169 175 172 187 176 105 167 217 100 116 219 240 180 172 179 191 202 200 198 196 193 193 193 192 193 194 196 197 197 198 200 202 204 204 203 202 204 202 199 198 196 195 194 193 193 193 195 196 198 203 209 215 219 221 224 227 231 234 235 236 238 241 243 245 247 252 263 271 279 282
223 214 215 218 232 236 232 242 230 200 215 243 233 197 180 123 165 177 173 176 138 118 190 207 169 147 248 256 167 170 190 198 205 204 201 198 195 195 194 194 194 195 197 199 199 200 201 203 204 204 202 201 203 201 198 198 196 195 195 195 196 197 198 199 201 205 210 214 217 221 227 230 234 237 237 237 238 239 239 241 246 255 263 267 269 265
236 228 223 213 226 233 231 243 231 205 214 245 259 236 264 14 115 156 150 125 135 188 210 199 194 178 202 243 191 183 201 198 196 199 203 199 196 196 196 194 194 195 196 198 200 201 202 203 204 203 201 201 202 200 199 199 197 196 197 197 200 201 201 203 205 207 211 214 217 222 228 233 236 236 233 230 232 237 238 240 247 251 255 257 256 252
242 238 234 214 223 227 229 243 240 218 208 226 256 181 235 305 59 80 15 69 170 240 236 198 194 186 203 240 211 209 213 200 187 191 198 197 196 197 195 194 194 195 196 197 199 200 200 200 201 201 201 202 202 200 199 200 198 197 199 200 202 204 205 207 208 209 213 214 216 221 226 233 235 231 225 223 229 232 231 233 238 241 243 248 248 248
238 235 240 229 225 218 216 240 244 241 213 206 189 104 146 263 355 94 251 195 200 246 245 191 180 187 220 225 204 209 216 206 192 192 194 193 192 193 194 194 195 195 196 197 198 199 199 199 199 200 202 203 203 199 198 200 199 199 202 203 204 206 207 209 210 210 212 215 215 217 222 226 225 221 219 222 225 223 221 224 227 233 244 249 245 240
244 243 231 229 229 212 209 220 228 240 218 193 187 148 154 165 166 227 231 213 208 253 258 195 169 194 251 248 208 204 210 208 201 196 194 191 187 189 194 195 195 195 196 198 199 200 200 200 200 200 201 203 203 200 198 201 202 202 205 206 207 208 210 211 212 212 213 215 214 213 218 221 216 213 218 221 221 219 218 220 226 237 247 248 242 236
220 245 223 214 218 203 209 211 201 200 203 204 174 147 161 157 164 214 205 188 200 238 268 235 175 192 208 238 212 199 206 208 203 194 187 188 188 189 193 194 193 195 197 199 201 202 203 202 201 200 200 201 203 200 199 202 205 206 207 209 209 210 212 213 213 214 214 215 215 212 216 217 208 209 215 215 216 214 210 213 223 234 242 243 236 231
211 241 233 218 214 202 209 207 184 171 197 227 146 119 172 176 158 189 197 187 173 201 259 222 207 209 202 258 244 198 204 203 191 176 170 179 186 186 189 193 194 196 198 201 203 203 203 203 201 200 200 201 203 201 200 203 206 208 209 210 212 212 214 214 215 215 215 216 216 213 214 213 205 207 209 206 208 207 204 210 220 231 240 240 231 226
201 249 258 224 219 216 210 189 171 172 185 217 170 169 210 174 140 133 243 271 93 138 265 240 254 293 294 303 324 123 164 173 168 169 169 174 178 180 187 192 195 198 200 203 205 205 204 203 203 202 201 202 203 202 202 203 206 208 210 211 213 215 216 216 216 217 216 216 216 214 214 212 206 205 206 202 200 200 204 209 216 228 237 233 228 222
186 258 271 225 221 231 217 195 183 180 157 145 205 209 201 147 114 109 174 328 56 153 277 291 263 284 264 274 325 78 142 172 173 176 175 170 171 177 186 191 196 201 203 205 207 208 206 204 204 204 203 204 205 205 205 206 207 209 211 213 214 215 216 216 217 217 217 216 217 216 213 211 207 204 207 204 195 196 203 205 208 214 213 209 204 198
192 254 282 237 218 226 215 200 208 209 166 149 184 192 162 159 191 131 162 176 114 195 275 302 280 250 200 234 264 174 180 184 180 179 172 166 172 179 184 190 196 201 204 205 207 207 207 206 206 205 205 206 207 208 208 209 210 211 213 215 216 217 219 218 217 217 217 217 217 216 213 211 207 202 207 208 198 195 199 197 193 184 176 172 152 149
195 200 287 268 228 198 195 196 207 230 225 157 144 169 178 170 176 182 168 161 166 191 225 281 291 268 226 217 211 208 200 184 178 180 175 175 181 183 184 189 196 201 203 205 207 208 208 208 208 208 208 209 209 210 210 210 211 213 215 216 218 219 220 220 218 216 216 216 216 214 211 209 206 204 208 208 202 199 197 191 179 169 167 158 135 134
185 183 248 287 270 192 196 208 194 195 200 172 149 180 215 199 141 171 199 149 145 157 184 219 258 268 250 211 199 207 199 180 176 175 180 186 186 186 186 188 195 200 203 206 208 209 209 209 210 210 210 210 210 210 210 211 213 215 216 216 218 219 221 221 219 216 217 217 215 211 209 207 206 206 208 208 207 203 199 190 175 172 177 169 157 167
178 175 209 261 272 227 225 220 197 187 181 171 167 185 192 167 124 155 244 262 138 151 173 183 222 262 260 227 205 189 165 170 180 176 184 189 187 189 190 190 195 199 202 207 209 209 210 211 210 210 210 210 209 209 209 211 213 214 215 216 218 219 222 223 220 217 217 217 214 211 208 207 207 207 209 210 210 206 202 194 180 179 188 185 192 220
178 148 179 232 252 241 236 226 203 186 172 166 178 189 181 156 130 146 200 228 199 176 151 126 157 262 269 256 201 158 147 173 182 177 178 184 187 191 193 193 196 199 204 208 209 209 211 212 212 211 209 209 209 210 211 211 212 213 215 216 217 220 223 223 221 219 217 217 215 210 206 205 207 208 210 211 212 211 206 195 185 187 193 191 210 242
180 163 171 237 280 270 258 249 220 187 161 159 183 178 169 173 164 157 173 182 182 204 149 99 114 261 276 295 178 140 144 164 174 172 172 178 186 191 193 194 196 200 207 210 209 211 212 212 212 210 209 210 211 212 212 212 213 214 214 215 217 221 224 222 220 219 217 216 214 209 204 203 204 206 209 212 214 213 206 195 191 193 195 196 212 234
183 182 162 179 263 273 279 275 243 216 184 174 178 175 181 178 162 151 128 124 166 213 160 126 179 248 271 326 324 151 140 144 161 167 170 175 181 186 190 193 196 200 206 209 209 211 211 211 211 211 212 213 213 213 213 213 214 214 214 215 219 222 223 220 219 217 215 215 213 209 203 201 201 203 206 210 214 215 207 197 196 199 202 205 216 229
177 181 160 172 200 211 212 220 219 213 215 215 172 174 192 187 170 161 123 133 196 215 144 136 186 247 280 311 283 214 142 136 153 161 169 176 179 184 189 192 196 200 204 208 210 212 212 213 214 215 215 215 215 216 214 214 215 215 215 217 220 222 221 219 218 216 212 211 213 211 205 200 200 201 203 207 212 216 214 207 205 208 210 212 223 242
157 184 171 175 192 199 200 214 211 175 178 208 190 179 196 197 173 140 111 155 189 170 173 204 181 183 233 227 220 209 158 149 158 158 164 172 175 182 188 191 195 200 205 208 210 211 213 214 216 217 218 218 219 218 217 216 216 215 215 218 221 222 220 219 218 215 211 210 213 213 207 201 199 197 198 201 205 216 220 216 216 218 220 225 238 254
123 191 184 177 195 209 208 215 213 180 181 198 193 189 202 195 156 134 151 185 161 143 211 243 181 165 199 209 200 198 175 161 167 165 165 167 171 180 186 190 195 199 205 209 210 212 213 215 218 220 221 221 222 220 219 218 217 216 217 220 221 220 218 218 219 217 213 209 209 208 205 204 200 192 189 193 202 216 219 216 219 224 227 235 244 254
131 193 194 180 198 215 213 215 205 185 190 195 190 199 212 205 175 162 181 175 151 160 212 217 182 176 191 199 197 194 183 175 174 168 165 166 171 179 183 187 192 197 202 208 211 213 215 217 220 223 224 225 223 221 220 218 218 217 218 220 220 217 216 217 217 216 213 207 202 200 202 207 203 191 187 197 208 219 219 217 220 224 229 238 246 253
163 204 197 183 200 216 211 211 194 177 190 197 197 206 216 212 196 184 187 175 170 189 196 176 181 192 194 194 201 199 187 176 170 163 162 166 173 179 183 186 191 196 201 207 212 217 220 222 224 225 226 227 225 223 222 220 218 217 217 218 216 213 213 214 215 215 211 203 196 191 195 205 205 198 200 208 213 219 220 221 223 225 233 242 247 254
208 222 194 176 189 208 205 199 171 162 181 190 198 206 204 207 212 199 183 168 171 212 186 163 178 208 215 197 191 184 168 159 159 162 166 169 172 175 181 187 191 196 200 205 212 218 222 225 227 227 228 229 230 228 225 221 218 217 217 217 216 216 215 215 215 214 209 204 197 191 191 196 201 207 221 216 212 220 222 222 226 230 238 245 249 256
221 220 169 143 155 202 207 165 129 128 131 144 193 214 136 130 130 82 81 135 147 126 93 133 177 218 237 199 144 139 151 153 157 164 168 171 173 176 181 187 193 199 203 208 215 220 226 229 231 234 235 237 237 233 226 222 220 219 220 221 219 216 213 210 212 214 212 210 205 196 192 192 199 218 242 221 211 223 227 225 230 233 238 242 246 252
215 185 147 128 143 228 251 135 113 101 93 67 291 264 117 113 113 101 77 57 133 131 121 144 206 218 218 121 130 141 159 160 156 155 155 157 163 169 175 179 184 191 197 205 213 219 226 233 239 247 249 249 246 238 230 227 228 228 227 222 215 209 205 205 210 215 215 210 202 196 195 194 202 228 238 215 212 226 229 232 235 234 237 241 243 249
318 165 162 142 139 214 267 108 95 109 159 208 248 197 127 117 113 105 97 96 101 126 136 162 214 176 124 109 118 134 144 138 133 135 135 133 138 147 158 164 165 168 172 178 190 202 215 230 249 260 260 259 253 243 235 233 234 234 227 215 209 207 204 204 208 210 210 205 199 197 196 196 212 243 228 210 218 228 231 237 239 237 240 243 245 251
336 58 141 113 122 165 233 77 97 176 210 230 225 152 115 109 111 105 97 90 86 102 104 78 57 134 129 123 124 121 119 121 122 125 126 122 125 140 157 168 169 167 164 161 174 206 227 235 242 252 259 259 254 247 239 232 230 226 215 206 204 201 196 196 200 203 204 202 198 194 193 202 238 256 228 214 222 229 234 241 241 240 243 243 246 252
47 39 69 56 89 136 93 79 149 211 263 306 3 100 89 82 89 82 52 8 11 63 94 93 83 83 100 116 126 125 123 122 122 126 130 116 95 115 172 191 182 166 154 162 182 209 224 225 219 216 235 252 256 253 244 235 229 224 217 211 205 197 193 196 200 202 204 203 197 191 194 217 249 246 227 222 225 231 237 239 238 239 241 242 245 251
117 93 76 47 39 125 114 102 161 254 332 334 352 72 126 149 144 120 88 358 330 347 65 116 117 99 91 109 124 126 123 115 97 84 111 112 93 89 124 166 171 165 170 182 192 210 218 216 211 207 230 258 262 258 249 241 236 229 222 216 208 200 197 201 205 208 209 208 203 200 203 225 246 237 227 224 225 231 236 234 235 238 238 240 244 248
98 124 135 114 40 89 100 77 41 56 45 280 282 294 316 133 149 132 98 16 323 337 342 138 137 135 132 131 135 133 120 97 65 30 89 108 108 98 104 131 157 173 185 188 195 203 191 193 202 218 276 285 269 258 253 249 242 231 221 216 211 204 203 209 214 214 212 211 210 209 211 226 240 234 227 223 224 230 233 232 236 240 240 242 246 249
24 58 109 103 60 61 97 96 110 133 160 250 282 313 7 118 136 103 58 21 309 327 324 182 150 141 143 145 145 136 110 95 184 241 78 92 102 109 125 146 162 172 176 172 175 183 181 214 297 306 302 289 256 243 244 246 242 230 220 217 216 214 215 218 218 215 214 215 214 212 217 230 235 230 226 224 226 231 234 237 241 243 244 246 248 251
3 6 59 85 69 57 93 113 163 148 95 310 312 325 330 83 112 77 59 244 299 324 8 94 108 102 109 115 112 102 99 137 170 135 86 93 104 116 133 149 154 155 154 147 162 275 300 302 308 312 295 266 237 232 235 238 236 230 223 219 218 219 221 222 219 216 215 215 214 216 225 233 234 231 229 227 228 233 238 243 246 244 244 247 248 249
358 0 29 110 97 59 84 100 115 143 15 336 334 327 321 338 74 77 151 217 295 345 71 84 82 81 86 89 88 86 101 116 119 109 96 96 101 105 111 121 121 121 113 37 296 292 290 284 288 294 271 235 229 230 229 230 229 226 224 221 218 220 223 224 221 216 214 216 221 225 229 232 234 233 230 228 231 235 241 247 248 246 245 245 244 240
6 355 351 63 94 67 101 101 20 209 326 334 332 336 344 18 101 131 179 188 280 72 81 80 80 82 82 83 88 95 101 98 95 94 88 85 88 88 85 86 87 76 355 292 277 275 272 260 243 222 202 192 204 214 217 223 224 223 224 225 227 230 227 220 217 216 218 225 229 227 226 232 240 239 235 236 237 239 243 246 246 245 245 242 238 234
158 124 353 356 95 80 83 71 66 212 303 337 341 345 16 50 166 162 132 122 98 84 79 75 75 77 78 80 82 83 85 83 79 78 76 73 71 67 65 69 67 56 353 276 267 261 257 245 216 196 192 194 203 203 203 214 222 222 221 221 223 226 223 218 218 222 225 228 227 224 228 238 245 242 240 243 243 242 245 247 245 244 243 238 233 234
181 172 154 216 163 79 83 81 125 219 295 6 38 55 38 57 127 138 110 96 83 81 80 75 72 70 70 73 71 65 63 63 63 65 68 67 62 56 54 51 42 35 12 291 261 240 230 224 211 200 196 198 205 200 197 206 218 219 213 204 203 213 219 221 223 224 224 224 224 227 235 241 242 240 243 248 249 249 251 252 247 242 238 233 229 233
223 205 151 117 77 101 127 173 253 276 337 44 63 66 58 67 86 93 86 81 75 78 82 80 74 70 67 67 66 62 58 54 53 53 55 59 61 54 47 39 27 14 355 314 261 223 213 226 243 233 210 201 198 192 190 197 205 207 199 191 202 215 216 217 219 220 221 223 228 236 242 241 240 241 245 249 252 252 252 251 245 236 230 229 231 242
253 230 125 101 125 123 96 47 357 6 23 48 66 72 68 65 66 71 75 74 68 69 77 82 82 75 63 54 51 54 57 57 56 55 52 51 49 42 36 30 18 359 335 307 277 247 234 238 242 233 217 202 188 181 183 187 190 191 188 193 208 211 208 211 215 217 222 226 232 242 244 240 241 244 244 246 249 248 245 243 238 230 225 228 238 254
333 58 76 87 140 133 82 354 3 59 47 46 60 69 69 66 64 66 68 67 66 68 69 71 73 68 59 48 35 35 42 41 42 45 42 38 34 27 18 9 355 332 307 293 284 271 259 248 232 219 210 197 181 173 173 175 175 180 185 189 196 200 202 205 206 210 225 231 229 230 233 236 240 243 242 242 241 234 228 225 224 224 228 239 252 256
56 77 90 86 53 94 143 215 117 84 71 62 62 60 58 66 71 68 65 62 60 63 65 64 60 56 56 55 37 23 22 20 20 24 22 18 17 14 6 355 338 320 301 286 277 269 259 240 218 206 198 187 173 165 163 167 178 185 179 176 182 186 183 181 183 195 215 223 222 224 229 234 238 238 236 230 220 213 212 214 219 230 247 259 258 254
120 85 109 125 89 77 115 193 123 84 69 69 76 69 55 63 72 72 70 63 55 53 55 58 56 48 44 45 31 13 6 2 3 7 6 4 5 4 356 340 322 308 291 273 260 250 237 218 203 194 187 179 170 164 163 172 183 181 172 167 172 166 145 151 188 207 208 211 214 214 217 223 229 230 228 223 218 217 219 224 234 246 253 252 248 249
98 104 86 112 126 133 181 210 168 118 87 85 95 94 81 66 64 59 55 53 52 48 39 39 47 42 33 31 21 360 347 343 343 347 348 348 351 351 343 324 303 286 268 253 240 226 211 200 192 185 179 177 175 173 172 172 169 166 161 156 154 154 193 242 255 247 222 222 227 220 213 215 219 222 225 227 228 231 233 235 238 240 239 242 250 258
115 163 167 117 128 172 170 152 136 122 125 117 99 101 111 112 89 72 54 45 51 55 41 33 32 18 6 8 9 3 354 339 325 321 322 323 325 327 322 302 280 266 251 238 227 215 203 193 185 177 171 169 171 173 174 172 166 163 162 153 142 188 244 239 245 239 230 232 236 228 219 218 220 224 229 232 235 237 237 237 236 237 245 257 265 267
Height
1477 1486 1491 1492 1488 1485 1485 1484 1485 1485 1487 1489 1489 1493 1496 1500 1502 1495 1491 1486 1484 1501 1510 1507 1511 1516 1517 1516 1513 1515 1518 1520 1523 1525 1526 1529 1530 1532 1533 1534 1536 1538 1539 1541 1542 1543 1545 1546 1547 1549 1550 1551 1552 1553 1554 1555 1556 1557 1558 1559 1560 1561 1562 1563 1563 1564 1564 1565 1565 1566 1566 1567 1568 1569 1569 1569 1570 1570 1570 1570 1570 1570 1570 1571 1571 1570
1477 1488 1489 1483 1479 1477 1478 1479 1482 1485 1487 1489 1491 1493 1495 1497 1498 1490 1487 1486 1482 1497 1510 1505 1509 1515 1512 1512 1511 1511 1515 1516 1517 1520 1522 1524 1526 1528 1529 1531 1533 1535 1537 1539 1540 1542 1543 1544 1545 1547 1548 1549 1550 1551 1552 1553 1554 1556 1557 1558 1559 1560 1561 1561 1562 1563 1563 1564 1565 1565 1566 1567 1567 1568 1568 1568 1569 1569 1569 1569 1569 1569 1569 1569 1569 1569
1484 1487 1481 1474 1472 1473 1475 1475 1480 1485 1487 1491 1491 1494 1498 1495 1494 1491 1486 1485 1483 1495 1510 1507 1510 1515 1509 1507 1508 1507 1509 1511 1512 1513 1516 1518 1521 1524 1525 1527 1530 1533 1535 1535 1537 1539 1540 1542 1544 1545 1546 1547 1549 1549 1551 1552 1553 1554 1555 1557 1558 1559 1559 1560 1561 1561 1562 1563 1564 1565 1566 1566 1566 1566 1567 1567 1567 1568 1568 1568 1568 1568 1568 1568 1567 1567
1489 1482 1473 1469 1470 1474 1477 1475 1479 1485 1487 1490 1491 1496 1499 1493 1495 1499 1491 1487 1485 1490 1503 1507 1510 1514 1511 1509 1507 1504 1505 1507 1510 1511 1512 1514 1516 1518 1520 1522 1525 1528 1530 1532 1534 1536 1538 1540 1541 1543 1545 1546 1547 1548 1549 1550 1551 1553 1554 1555 1556 1557 1558 1559 1560 1561 1562 1563 1564 1564 1565 1565 1565 1565 1565 1566 1566 1566 1566 1566 1566 1566 1566 1566 1566 1566
1483 1474 1466 1467 1470 1473 1478 1478 1480 1488 1491 1490 1488 1491 1494 1490 1491 1493 1489 1488 1490 1493 1497 1505 1520 1521 1514 1515 1511 1506 1506 1507 1509 1511 1512 1512 1512 1514 1517 1519 1521 1523 1525 1528 1530 1532 1535 1537 1539 1540 1542 1544 1545 1546 1547 1548 1550 1551 1552 1554 1555 1556 1558 1559 1560 1561 1561 1562 1563 1563 1563 1564 1564 1563 1563 1564 1564 1565 1565 1564 1564 1565 1565 1565 1565 1564
1477 1467 1465 1469 1470 1472 1478 1480 1479 1485 1492 1490 1484 1481 1482 1484 1485 1487 1489 1492 1504 1512 1501 1503 1532 1535 1516 1515 1514 1508 1509 1509 1508 1509 1510 1511 1512 1513 1515 1516 1518 1520 1522 1524 1526 1529 1531 1533 1536 1538 1540 1542 1543 1544 1546 1547 1548 1550 1551 1552 1554 1555 1556 1558 1559 1560 1560 1561 1561 1562 1562 1562 1562 1562 1562 1562 1563 1563 1563 1563 1563 1563 1563 1563 1563 1563
1471 1464 1464 1468 1470 1471 1477 1479 1474 1477 1489 1492 1479 1471 1472 1475 1481 1486 1489 1496 1509 1514 1498 1493 1520 1533 1522 1516 1512 1508 1510 1510 1508 1507 1507 1509 1510 1511 1512 1514 1516 1517 1519 1522 1524 1526 1528 1531 1533 1535 1537 1539 1540 1543 1545 1546 1547 1549 1550 1551 1552 1553 1555 1556 1557 1558 1559 1559 1560 1560 1560 1561 1561 1561 1562 1562 1562 1562 1562 1562 1562 1562 1562 1562 1562 1562
1464 1465 1466 1467 1469 1472 1476 1478 1469 1470 1486 1487 1470 1464 1469 1472 1478 1481 1485 1494 1498 1497 1498 1495 1503 1522 1526 1516 1507 1507 1512 1512 1509 1507 1506 1505 1506 1508 1509 1510 1512 1514 1516 1518 1521 1523 1526 1528 1529 1532 1534 1536 1538 1541 1543 1544 1546 1547 1549 1550 1551 1552 1553 1554 1556 1556 1557 1557 1558 1559 1559 1560 1560 1560 1561 1561 1561 1562 1561 1561 1561 1561 1561 1561 1561 1561
1460 1465 1467 1467 1471 1473 1472 1469 1463 1465 1478 1474 1460 1460 1465 1468 1473 1475 1480 1489 1489 1495 1511 1506 1500 1519 1527 1513 1505 1508 1512 1514 1510 1505 1502 1501 1502 1504 1505 1506 1508 1510 1513 1515 1517 1520 1522 1524 1526 1529 1532 1534 1537 1539 1541 1542 1544 1546 1547 1549 1549 1550 1552 1553 1554 1555 1555 1556 1557 1557 1558 1558 1559 1559 1559 1560 1560 1560 1560 1560 1560 1560 1560 1559 1559 1559
1458 1459 1460 1462 1469 1469 1464 1459 1456 1463 1469 1460 1453 1458 1461 1464 1469 1471 1479 1487 1490 1502 1515 1508 1500 1516 1525 1513 1508 1512 1513 1512 1505 1499 1497 1496 1498 1500 1501 1503 1505 1507 1510 1512 1514 1516 1519 1521 1523 1527 1529 1532 1535 1537 1539 1541 1543 1544 1545 1547 1548 1549 1550 1551 1552 1553 1554 1555 1556 1556 1556 1556 1557 1557 1557 1558 1558 1558 1558 1558 1558 1558 1558 1558 1558 1557
1455 1453 1453 1456 1460 1458 1455 1454 1451 1455 1458 1452 1454 1461 1464 1468 1471 1475 1481 1486 1497 1507 1507 1500 1495 1505 1518 1514 1507 1505 1498 1494 1495 1496 1495 1494 1496 1497 1498 1500 1502 1505 1507 1509 1512 1514 1517 1519 1521 1525 1527 1529 1532 1534 1537 1539 1540 1542 1543 1545 1546 1547 1548 1549 1550 1551 1552 1553 1554 1554 1555 1555 1556 1556 1556 1556 1556 1556 1556 1557 1557 1557 1557 1557 1556 1556
1457 1457 1454 1451 1451 1450 1452 1454 1450 1448 1450 1453 1460 1466 1473 1479 1479 1485 1490 1490 1505 1510 1497 1490 1489 1498 1513 1509 1498 1491 1480 1477 1484 1488 1489 1489 1491 1492 1495 1498 1499 1502 1504 1507 1510 1512 1514 1517 1519 1522 1524 1526 1529 1531 1533 1536 1537 1539 1541 1542 1544 1545 1546 1547 1548 1550 1551 1552 1552 1553 1554 1554 1555 1554 1554 1554 1554 1555 1555 1556 1556 1556 1556 1555 1555 1555
1461 1458 1453 1449 1447 1446 1454 1460 1457 1453 1452 1458 1465 1471 1484 1493 1494 1501 1504 1501 1506 1503 1487 1483 1488 1498 1502 1491 1482 1480 1473 1472 1475 1475 1476 1479 1484 1489 1492 1495 1496 1499 1502 1504 1507 1509 1511 1513 1515 1517 1520 1522 1525 1527 1530 1532 1534 1536 1538 1539 1541 1542 1544 1545 1546 1547 1548 1550 1551 1552 1552 1553 1553 1553 1553 1553 1553 1553 1554 1554 1554 1554 1554 1554 1554 1554
1468 1460 1451 1452 1449 1442 1449 1461 1465 1463 1459 1462 1468 1474 1486 1497 1506 1513 1511 1507 1507 1497 1482 1479 1485 1496 1494 1477 1469 1468 1463 1463 1464 1466 1470 1473 1479 1485 1487 1490 1493 1495 1498 1500 1503 1504 1505 1507 1509 1512 1515 1518 1521 1523 1526 1529 1531 1533 1535 1536 1538 1540 1541 1543 1544 1545 1546 1547 1549 1550 1551 1551 1551 1551 1551 1551 1551 1552 1552 1552 1553 1553 1553 1553 1553 1553
1476 1471 1454 1452 1450 1442 1443 1449 1453 1456 1457 1459 1459 1465 1477 1484 1496 1505 1503 1503 1503 1493 1485 1483 1486 1491 1486 1469 1456 1453 1451 1453 1458 1464 1469 1473 1478 1481 1484 1488 1490 1492 1494 1497 1498 1499 1500 1502 1505 1508 1511 1514 1517 1520 1523 1525 1527 1530 1531 1533 1534 1537 1539 1540 1542 1543 1544 1545 1546 1547 1549 1549 1549 1549 1550 1550 1550 1550 1550 1550 1551 1551 1551 1551 1551 1551
1470 1468 1447 1440 1440 1437 1440 1438 1436 1447 1458 1456 1451 1462 1471 1469 1474 1486 1489 1487 1488 1489 1488 1484 1481 1475 1467 1456 1446 1446 1449 1451 1459 1464 1468 1473 1477 1481 1485 1487 1488 1490 1492 1494 1495 1496 1498 1500 1503 1505 1507 1510 1513 1516 1518 1521 1523 1525 1527 1529 1531 1533 1536 1537 1539 1540 1541 1543 1544 1545 1546 1547 1547 1547 1548 1548 1548 1548 1548 1549 1549 1550 1550 1550 1550 1550
1465 1461 1441 1436 1437 1432 1434 1433 1429 1441 1455 1454 1455 1463 1461 1453 1458 1477 1488 1480 1481 1494 1490 1479 1476 1468 1463 1459 1450 1449 1454 1455 1459 1463 1464 1469 1474 1479 1482 1483 1485 1487 1489 1490 1492 1493 1496 1498 1500 1502 1504 1507 1509 1512 1514 1516 1518 1520 1523 1525 1528 1530 1533 1534 1536 1537 1538 1540 1541 1542 1544 1545 1545 1545 1546 1546 1546 1547 1547 1548 1548 1548 1548 1548 1548 1548
1458 1459 1440 1434 1441 1432 1425 1428 1427 1427 1437 1450 1459 1455 1449 1452 1456 1468 1486 1489 1492 1503 1492 1477 1478 1476 1475 1472 1458 1454 1460 1459 1458 1460 1462 1468 1472 1475 1478 1479 1482 1483 1484 1487 1488 1490 1492 1494 1497 1499 1501 1503 1505 1507 1508 1511 1513 1516 1519 1521 1523 1526 1528 1530 1532 1533 1535 1537 1538 1540 1541 1542 1543 1543 1544 1544 1544 1545 1545 1546 1547 1547 1547 1547 1547 1547
1449 1460 1446 1430 1436 1432 1421 1430 1437 1429 1426 1437 1445 1440 1446 1465 1470 1470 1483 1493 1499 1506 1496 1483 1480 1478 1478 1473 1462 1460 1462 1459 1458 1459 1462 1466 1468 1471 1474 1476 1478 1480 1482 1484 1485 1488 1490 1491 1494 1496 1499 1500 1502 1504 1505 1507 1510 1512 1515 1517 1519 1521 1523 1526 1528 1530 1531 1533 1535 1537 1538 1540 1540 1541 1542 1542 1542 1542 1543 1544 1545 1545 1545 1545 1546 1546
1443 1460 1455 1432 1427 1429 1427 1435 1446 1442 1432 1431 1435 1438 1443 1455 1464 1467 1473 1479 1489 1499 1500 1491 1485 1479 1471 1464 1459 1458 1456 1455 1456 1458 1460 1462 1463 1465 1469 1472 1475 1478 1480 1481 1482 1485 1486 1488 1490 1492 1495 1496 1498 1501 1502 1505 1507 1509 1511 1513 1515 1518 1520 1523 1524 1526 1528 1530 1532 1534 1536 1537 1538 1539 1540 1540 1540 1541 1541 1542 1543 1543 1544 1544 1544 1545
1440 1454 1458 1441 1428 1433 1437 1435 1438 1441 1440 1440 1445 1450 1450 1449 1453 1460 1465 1467 1474 1487 1496 1495 1491 1480 1462 1453 1452 1451 1450 1451 1452 1454 1457 1458 1459 1462 1466 1469 1472 1473 1476 1478 1479 1480 1482 1484 1487 1489 1491 1493 1495 1498 1501 1502 1504 1505 1508 1510 1512 1515 1517 1519 1521 1523 1525 1527 1529 1531 1533 1534 1535 1537 1538 1538 1539 1540 1540 1540 1541 1541 1542 1543 1543 1544
1438 1447 1453 1448 1440 1440 1437 1424 1421 1426 1430 1436 1443 1447 1449 1449 1454 1466 1473 1468 1463 1472 1481 1485 1490 1478 1454 1445 1446 1444 1447 1449 1448 1450 1453 1455 1457 1461 1463 1466 1468 1470 1473 1474 1475 1477 1480 1481 1484 1486 1489 1492 1495 1497 1498 1500 1501 1503 1505 1507 1509 1512 1513 1515 1517 1519 1522 1524 1526 1528 1530 1532 1533 1535 1536 1537 1537 1538 1538 1539 1539 1540 1541 1541 1542 1543
1427 1437 1447 1448 1440 1436 1428 1415 1412 1416 1419 1426 1432 1436 1440 1445 1451 1465 1475 1469 1462 1466 1469 1474 1484 1473 1449 1441 1441 1439 1442 1445 1446 1448 1450 1453 1456 1458 1461 1464 1466 1468 1470 1471 1473 1475 1477 1479 1481 1484 1487 1490 1492 1493 1495 1497 1498 1500 1502 1504 1507 1508 1510 1512 1514 1516 1518 1520 1523 1525 1527 1529 1531 1533 1534 1534 1535 1536 1537 1537 1538 1538 1539 1540 1541 1541
1422 1434 1444 1446 1437 1428 1421 1414 1410 1411 1416 1426 1430 1430 1435 1440 1442 1448 1455 1457 1461 1467 1468 1475 1486 1472 1448 1440 1440 1438 1440 1442 1444 1446 1448 1451 1454 1455 1459 1461 1464 1466 1467 1469 1471 1473 1475 1478 1480 1483 1485 1487 1489 1490 1492 1493 1495 1497 1500 1502 1504 1505 1507 1509 1511 1512 1514 1517 1520 1522 1525 1526 1528 1530 1531 1532 1534 1535 1536 1537 1537 1537 1537 1538 1539 1539
1423 1432 1439 1449 1451 1444 1438 1433 1427 1421 1422 1428 1429 1428 1430 1433 1435 1440 1444 1450 1459 1465 1464 1473 1483 1470 1449 1442 1442 1440 1440 1442 1444 1444 1445 1448 1451 1454 1457 1458 1461 1464 1466 1468 1470 1472 1474 1477 1479 1481 1482 1484 1485 1487 1489 1490 1492 1495 1497 1499 1500 1502 1503 1505 1507 1508 1511 1515 1519 1520 1521 1523 1525 1526 1529 1531 1534 1535 1537 1537 1536 1536 1535 1535 1536 1537
1417 1426 1431 1445 1458 1459 1455 1448 1439 1432 1428 1426 1425 1425 1427 1429 1433 1439 1446 1453 1461 1463 1462 1466 1472 1464 1450 1446 1446 1443 1441 1442 1444 1444 1444 1446 1449 1452 1454 1456 1459 1462 1464 1466 1468 1470 1472 1473 1475 1477 1478 1480 1481 1483 1485 1487 1489 1492 1494 1496 1497 1498 1499 1501 1503 1505 1507 1512 1517 1519 1519 1519 1521 1524 1528 1531 1534 1536 1538 1537 1536 1535 1534 1533 1533 1534
1411 1419 1421 1430 1441 1443 1441 1433 1423 1422 1427 1429 1426 1424 1425 1426 1428 1436 1447 1453 1454 1457 1460 1459 1458 1459 1456 1450 1448 1445 1441 1442 1443 1443 1444 1445 1446 1449 1451 1454 1456 1459 1462 1464 1465 1467 1468 1470 1471 1473 1474 1476 1477 1479 1482 1484 1486 1488 1490 1491 1492 1493 1495 1498 1500 1502 1503 1506 1510 1515 1517 1519 1521 1524 1527 1529 1531 1533 1534 1535 1535 1534 1532 1531 1531 1532
1410 1418 1418 1421 1424 1423 1423 1420 1414 1414 1421 1424 1424 1423 1423 1424 1427 1434 1442 1445 1446 1454 1461 1455 1450 1455 1455 1448 1446 1443 1440 1441 1441 1440 1440 1442 1444 1447 1449 1451 1454 1456 1459 1461 1462 1463 1464 1466 1468 1469 1470 1472 1474 1477 1479 1481 1484 1485 1486 1486 1487 1489 1492 1495 1496 1498 1499 1500 1503 1510 1516 1521 1523 1523 1524 1525 1526 1528 1529 1531 1532 1532 1530 1529 1529 1530
1405 1415 1414 1415 1418 1416 1416 1415 1412 1412 1415 1417 1419 1422 1421 1422 1426 1430 1433 1436 1439 1446 1450 1447 1447 1449 1445 1441 1440 1436 1433 1434 1435 1435 1436 1439 1442 1444 1446 1449 1451 1453 1455 1457 1459 1461 1462 1463 1464 1465 1467 1469 1471 1474 1477 1479 1481 1482 1483 1483 1485 1487 1489 1491 1493 1494 1496 1498 1502 1511 1520 1524 1524 1522 1522 1523 1524 1526 1527 1528 1529 1529 1529 1528 1528 1528
1398 1408 1407 1409 1415 1414 1412 1412 1409 1410 1414 1415 1416 1417 1417 1419 1422 1424 1427 1429 1431 1434 1435 1438 1444 1442 1435 1432 1432 1428 1426 1428 1430 1433 1436 1438 1441 1443 1445 1448 1449 1451 1453 1455 1457 1459 1460 1461 1461 1463 1465 1467 1470 1472 1474 1476 1477 1478 1480 1482 1484 1486 1487 1489 1491 1493 1496 1498 1504 1512 1519 1523 1523 1521 1520 1521 1522 1524 1525 1526 1527 1527 1527 1526 1526 1527
1394 1403 1402 1404 1414 1415 1409 1409 1409 1409 1413 1415 1415 1415 1415 1416 1419 1421 1424 1426 1429 1432 1432 1436 1444 1441 1429 1424 1425 1427 1429 1430 1432 1435 1437 1438 1440 1442 1444 1447 1448 1450 1452 1454 1456 1458 1459 1460 1461 1462 1464 1466 1468 1470 1471 1473 1474 1476 1477 1479 1480 1480 1480 1483 1486 1491 1495 1497 1502 1509 1511 1515 1518 1519 1518 1518 1519 1521 1523 1524 1525 1525 1525 1525 1524 1524
1393 1400 1399 1403 1417 1419 1409 1408 1410 1409 1411 1416 1418 1418 1418 1419 1422 1424 1424 1424 1426 1430 1435 1442 1447 1440 1427 1422 1425 1428 1431 1432 1433 1434 1435 1437 1439 1441 1443 1446 1448 1450 1452 1454 1456 1457 1459 1460 1461 1463 1464 1466 1467 1468 1469 1470 1471 1473 1473 1473 1474 1475 1477 1481 1486 1493 1494 1492 1497 1504 1506 1509 1515 1517 1517 1517 1517 1519 1520 1522 1523 1523 1523 1522 1522 1522
1394 1397 1398 1403 1417 1419 1410 1408 1408 1409 1420 1430 1426 1420 1420 1420 1422 1424 1424 1422 1421 1423 1433 1440 1438 1430 1425 1425 1428 1430 1431 1432 1432 1433 1435 1438 1440 1442 1445 1447 1450 1452 1454 1456 1457 1458 1460 1461 1462 1463 1464 1465 1466 1466 1467 1468 1468 1469 1468 1469 1471 1473 1477 1483 1489 1493 1493 1492 1498 1504 1505 1508 1512 1513 1514 1514 1515 1516 1517 1519 1520 1520 1520 1519 1519 1520
1394 1395 1396 1400 1411 1419 1415 1407 1408 1418 1433 1435 1422 1413 1415 1417 1418 1423 1427 1424 1420 1420 1424 1427 1425 1420 1421 1426 1431 1433 1434 1433 1434 1436 1438 1440 1442 1445 1447 1449 1451 1453 1454 1456 1457 1458 1459 1460 1461 1462 1462 1463 1464 1464 1466 1467 1467 1468 1468 1469 1470 1471 1475 1481 1485 1487 1489 1493 1500 1504 1505 1507 1509 1510 1510 1511 1512 1513 1514 1515 1516 1516 1517 1517 1517 1517
1396 1396 1397 1398 1406 1416 1413 1410 1424 1438 1434 1421 1412 1408 1410 1412 1413 1418 1424 1422 1419 1418 1418 1421 1424 1421 1417 1420 1428 1433 1435 1436 1438 1439 1441 1442 1443 1445 1447 1448 1450 1451 1452 1453 1454 1455 1457 1458 1458 1459 1459 1461 1462 1463 1465 1466 1466 1468 1470 1471 1472 1475 1478 1482 1485 1488 1491 1494 1498 1502 1504 1505 1506 1506 1507 1508 1509 1510 1511 1512 1513 1513 1514 1514 1514 1514
1395 1397 1400 1403 1407 1413 1415 1420 1434 1439 1424 1411 1410 1409 1410 1414 1416 1420 1427 1426 1421 1419 1418 1421 1425 1423 1418 1419 1423 1429 1434 1438 1441 1443 1442 1443 1443 1443 1445 1446 1447 1448 1449 1451 1452 1453 1454 1455 1455 1456 1457 1458 1459 1460 1460 1461 1462 1464 1466 1467 1469 1473 1478 1481 1484 1488 1490 1492 1495 1498 1501 1502 1501 1502 1503 1504 1505 1506 1507 1508 1509 1509 1510 1510 1511 1511
1391 1396 1401 1408 1412 1414 1419 1424 1428 1430 1427 1421 1416 1412 1410 1414 1416 1420 1430 1432 1424 1421 1422 1422 1425 1425 1423 1424 1425 1427 1432 1437 1442 1444 1442 1441 1441 1441 1441 1442 1444 1447 1448 1449 1450 1451 1451 1452 1453 1454 1455 1456 1457 1457 1457 1458 1458 1459 1461 1462 1462 1465 1471 1476 1478 1480 1483 1484 1486 1489 1493 1495 1496 1497 1499 1500 1501 1502 1504 1504 1505 1506 1506 1507 1507 1508
1389 1394 1399 1408 1414 1413 1418 1426 1431 1437 1440 1432 1422 1413 1407 1408 1408 1410 1425 1433 1426 1422 1424 1422 1423 1424 1424 1426 1429 1429 1432 1440 1447 1446 1441 1440 1439 1438 1439 1441 1443 1445 1447 1448 1448 1449 1450 1451 1452 1453 1454 1455 1455 1456 1456 1456 1456 1456 1457 1459 1460 1462 1466 1469 1471 1473 1476 1477 1478 1482 1487 1490 1491 1493 1495 1496 1497 1498 1499 1500 1501 1502 1502 1503 1504 1504
1395 1396 1396 1404 1413 1413 1418 1430 1437 1440 1439 1431 1422 1412 1406 1408 1405 1406 1428 1443 1432 1423 1425 1423 1421 1423 1423 1425 1428 1428 1434 1447 1452 1446 1440 1439 1438 1437 1438 1441 1442 1444 1446 1446 1447 1448 1449 1451 1451 1452 1452 1453 1453 1454 1454 1454 1454 1454 1455 1457 1459 1461 1463 1465 1467 1469 1472 1474 1476 1481 1484 1486 1488 1489 1491 1493 1494 1495 1496 1497 1498 1498 1499 1500 1501 1501
1402 1402 1401 1408 1418 1418 1420 1428 1431 1431 1431 1427 1421 1415 1411 1407 1403 1417 1448 1456 1435 1425 1427 1424 1424 1426 1424 1425 1428 1430 1436 1445 1447 1443 1441 1439 1438 1439 1440 1441 1442 1443 1444 1445 1446 1447 1448 1449 1449 1450 1450 1451 1451 1452 1452 1453 1453 1453 1454 1456 1458 1459 1460 1462 1464 1466 1469 1472 1475 1480 1482 1483 1485 1486 1489 1490 1491 1492 1493 1494 1494 1495 1496 1497 1498 1499
1410 1410 1411 1415 1420 1420 1422 1428 1430 1428 1427 1422 1417 1414 1409 1406 1415 1438 1456 1450 1433 1429 1428 1424 1427 1430 1427 1427 1430 1433 1437 1440 1440 1441 1441 1440 1439 1440 1441 1442 1442 1443 1443 1444 1446 1446 1447 1448 1448 1448 1449 1449 1450 1450 1451 1451 1452 1453 1454 1455 1456 1456 1457 1459 1462 1465 1469 1472 1475 1478 1480 1481 1483 1486 1488 1489 1489 1490 1491 1491 1491 1492 1493 1494 1495 1495
1417 1419 1419 1418 1422 1424 1426 1432 1436 1434 1426 1418 1414 1410 1406 1415 1436 1447 1443 1434 1432 1432 1428 1426 1430 1431 1430 1432 1434 1437 1439 1440 1440 1441 1440 1439 1439 1439 1440 1442 1442 1443 1443 1444 1445 1446 1446 1446 1446 1447 1447 1448 1449 1449 1449 1450 1451 1452 1453 1454 1454 1455 1457 1459 1462 1465 1469 1471 1473 1476 1478 1481 1484 1486 1487 1488 1488 1488 1488 1488 1488 1489 1490 1491 1491 1490
1421 1425 1427 1425 1426 1428 1429 1434 1442 1441 1428 1415 1413 1413 1414 1425 1438 1437 1430 1431 1434 1430 1427 1429 1431 1432 1433 1436 1437 1439 1441 1441 1441 1441 1439 1439 1439 1439 1440 1441 1441 1442 1443 1444 1445 1445 1445 1445 1445 1446 1447 1447 1447 1448 1448 1448 1449 1450 1451 1451 1452 1454 1457 1460 1463 1466 1468 1471 1473 1476 1479 1482 1484 1485 1487 1487 1487 1487 1487 1487 1486 1486 1487 1488 1487 1487
1421 1424 1427 1427 1426 1429 1435 1440 1441 1438 1428 1416 1416 1423 1427 1429 1431 1430 1430 1433 1432 1429 1427 1429 1431 1434 1436 1437 1437 1439 1441 1443 1443 1441 1440 1440 1440 1439 1440 1440 1440 1441 1442 1442 1444 1444 1445 1446 1446 1446 1446 1447 1447 1447 1448 1448 1449 1449 1450 1450 1452 1454 1457 1460 1464 1466 1469 1471 1474 1476 1478 1480 1481 1484 1485 1486 1486 1486 1486 1486 1484 1483 1483 1484 1484 1485
1419 1417 1417 1421 1424 1427 1434 1438 1432 1428 1425 1420 1420 1426 1430 1431 1432 1433 1432 1431 1432 1431 1428 1428 1431 1436 1438 1439 1440 1440 1442 1445 1445 1443 1442 1441 1440 1440 1439 1439 1440 1440 1441 1442 1443 1444 1445 1446 1446 1446 1446 1446 1446 1447 1447 1448 1449 1450 1451 1453 1454 1456 1458 1461 1464 1466 1468 1471 1473 1476 1478 1479 1480 1482 1483 1482 1483 1482 1482 1482 1481 1480 1480 1480 1482 1484
1415 1412 1410 1416 1423 1424 1427 1430 1427 1425 1427 1425 1424 1428 1431 1433 1434 1434 1432 1432 1434 1434 1432 1432 1434 1435 1437 1441 1443 1444 1446 1447 1445 1444 1443 1442 1441 1440 1439 1439 1440 1441 1441 1442 1443 1443 1444 1445 1445 1445 1445 1445 1446 1446 1447 1448 1450 1452 1454 1456 1457 1458 1459 1461 1463 1465 1467 1469 1472 1476 1478 1478 1478 1479 1479 1479 1479 1479 1478 1479 1478 1478 1479 1480 1481 1483
1414 1411 1412 1417 1422 1424 1429 1431 1426 1425 1428 1429 1429 1431 1433 1434 1435 1435 1435 1437 1437 1437 1437 1436 1435 1435 1436 1440 1445 1447 1447 1445 1443 1443 1442 1440 1440 1440 1439 1440 1440 1441 1442 1443 1443 1443 1444 1444 1444 1445 1445 1445 1446 1447 1448 1450 1452 1454 1455 1455 1455 1456 1457 1459 1464 1468 1469 1470 1471 1474 1475 1474 1475 1475 1476 1476 1476 1476 1476 1476 1476 1477 1478 1479 1480 1480
1415 1413 1415 1419 1422 1424 1430 1431 1426 1426 1429 1430 1431 1435 1437 1437 1438 1437 1438 1440 1440 1439 1437 1436 1436 1437 1438 1441 1445 1446 1444 1443 1442 1441 1440 1439 1439 1439 1440 1441 1441 1441 1442 1442 1443 1443 1443 1443 1444 1444 1444 1445 1446 1447 1450 1452 1453 1454 1455 1455 1457 1458 1459 1461 1465 1468 1469 1469 1469 1470 1470 1470 1471 1471 1472 1472 1473 1473 1474 1474 1475 1475 1476 1476 1477 1478
1414 1415 1418 1421 1425 1428 1430 1430 1427 1428 1430 1430 1431 1435 1440 1442 1441 1439 1439 1440 1440 1439 1438 1438 1439 1440 1441 1443 1444 1444 1444 1444 1442 1440 1439 1439 1439 1439 1440 1441 1441 1442 1442 1442 1442 1443 1443 1443 1444 1444 1444 1446 1446 1448 1450 1452 1453 1454 1456 1458 1460 1463 1464 1465 1465 1466 1466 1467 1468 1468 1467 1468 1468 1469 1470 1470 1471 1471 1472 1472 1473 1473 1474 1474 1475 1476
1415 1420 1420 1422 1429 1432 1429 1427 1426 1428 1432 1433 1432 1434 1439 1442 1442 1441 1441 1440 1438 1439 1442 1442 1442 1442 1443 1444 1445 1446 1445 1443 1441 1440 1440 1439 1439 1440 1441 1441 1442 1442 1442 1442 1442 1442 1443 1444 1444 1445 1445 1446 1447 1449 1451 1452 1453 1454 1455 1457 1460 1463 1465 1465 1465 1465 1466 1468 1468 1467 1466 1466 1467 1467 1468 1468 1469 1469 1470 1470 1471 1471 1472 1472 1473 1473
1414 1419 1419 1420 1426 1428 1425 1425 1426 1428 1432 1435 1434 1435 1437 1438 1440 1443 1445 1443 1441 1441 1444 1445 1446 1446 1446 1447 1447 1446 1444 1442 1441 1441 1440 1440 1440 1440 1441 1442 1442 1442 1442 1442 1442 1442 1443 1445 1445 1445 1446 1447 1449 1451 1452 1454 1455 1456 1455 1456 1459 1463 1465 1465 1465 1465 1465 1467 1467 1466 1466 1465 1465 1465 1466 1466 1467 1467 1467 1467 1468 1469 1469 1470 1471 1471